This is the latest recevied weather packets stored in our database for station/object HB9TVK-13. If no packets are shown the sender has not sent any weather packets the latest 10 day(s).
| Time | Temp. | Humidity | Pressure | Rain* | Wind** | Luminosity | Snow |
|---|---|---|---|---|---|---|---|
| 1777498036 | 12.22° C | 50% | 1021.1 hPa | 0 mm | - | - | - |
| 1777497436 | 12.22° C | 50% | 1021.2 hPa | 0 mm | - | - | - |
| 1777496836 | 12.22° C | 49% | 1021.1 hPa | 0 mm | - | - | - |
| 1777496236 | 12.78° C | 48% | 1021 hPa | 0 mm | - | - | - |
| 1777495637 | 12.78° C | 47% | 1021 hPa | 0 mm | - | - | - |
| 1777495037 | 12.78° C | 47% | 1020.9 hPa | 0 mm | - | - | - |
| 1777494438 | 13.33° C | 48% | 1020.9 hPa | 0 mm | - | - | - |
| 1777493835 | 13.33° C | 47% | 1020.8 hPa | 0 mm | - | - | - |
| 1777493236 | 13.33° C | 47% | 1020.8 hPa | 0 mm | - | - | - |
| 1777492636 | 13.33° C | 47% | 1020.8 hPa | 0 mm | - | - | - |
| 1777492037 | 13.89° C | 46% | 1020.7 hPa | 0 mm | - | - | - |
| 1777491437 | 13.89° C | 46% | 1020.6 hPa | 0 mm | - | - | - |
| 1777490837 | 13.89° C | 45% | 1020.6 hPa | 0 mm | - | - | - |
| 1777490238 | 13.89° C | 45% | 1020.4 hPa | 0 mm | - | - | - |
| 1777489636 | 14.44° C | 44% | 1020.3 hPa | 0 mm | - | - | - |
| 1777489036 | 14.44° C | 44% | 1020 hPa | 0 mm | - | - | - |
| 1777488436 | 14.44° C | 44% | 1020 hPa | 0 mm | - | - | - |
| 1777487837 | 15° C | 43% | 1019.9 hPa | 0 mm | - | - | - |
| 1777487237 | 15.56° C | 42% | 1019.8 hPa | 0 mm | - | - | - |
| 1777486637 | 16.11° C | 42% | 1019.7 hPa | 0 mm | - | - | - |
| 1777486038 | 16.11° C | 41% | 1019.7 hPa | 0 mm | - | - | - |
| 1777485435 | 16.67° C | 41% | 1019.6 hPa | 0 mm | - | - | - |
| 1777484836 | 16.67° C | 41% | 1019.5 hPa | 0 mm | - | - | - |
| 1777484236 | 17.22° C | 40% | 1019.4 hPa | 0 mm | - | - | - |
| 1777483636 | 17.22° C | 40% | 1019.3 hPa | 0 mm | - | - | - |
* Rain latest hour (hover to see other rain measurements)
** Current wind speed in m/s (hover to see current wind gust speed)